Погода в Двуреченске

Россия / Свердловская область     56°35′45″N   61°05′39″E
темп.,
°C
ветер,
м/с
пор.,
м/с
влажн.,
%
обл.,
%
осадки,
мм/ч
давл.,
гПа
погр.,
м
27 октября, ср
ср2723:00−1зюз4118096 0.1 1020901
02:00−1зюз4128078 0.0 1020750
05:00−1зюз41177100 0.0 1020705
08:00−1зюз41177100 0.0 1019681
11:00+1зюз41072100 0.0 1019690
14:00+2зюз4871100 0.0 1019783
17:00+1юз41070100 0.0 1018704
20:00+1юз41174100 0.0 1017698
28 октября, чт
чт2823:00+1юз41276100 0.0 1015691
02:00+1юз51276100 0.0 1013695
05:00+1зюз51475100 0.0 1011724
08:00+1юз61568100 0.0 1009803
11:00+2зюз61464100 0.0 1008986
14:00+3зюз7146984 0.0 10071095
17:00+2зюз61479100 0.0 10081000
20:00+2зюз61493100 0.0 10081236
29 октября, пт
пт2923:00+3з61390100 0.1 10081087
02:00+2зюз61396100 0.1 10081067
05:00+2зюз61296100 0.3 10091172
08:00−3сз511667 0.8 1014735
11:00−3сз610560 0.8 1017851
14:00−1сз610440 0.0 10201180
17:00−3зсз510563 0.0 10231003
20:00−4зсз510685 0.0 1026766
30 октября, сб
сб3023:00−5зсз49736 0.0 1027540
02:00−5з31073100 0.0 1028462
05:00−4зюз41163100 0.0 1027590
08:00−3юз41259100 0.1 1025611
11:00−1юз61553100 0.2 1021940
14:000зюз61570100 0.4 10171031
17:000з61677100 0.5 1015939
20:00+2з71694100 0.0 1014887
31 октября, вс
вс3123:00+4зсз61595100 0.1 1015892
02:00+5зсз61482100 0.1 10171354
05:00+4зсз5128396 0.2 1020899
08:00+3сз41067100 0.0 1022787
11:00+4зсз486564 0.0 10241065
14:00+5зсз4761100 0.0 10251002
17:00+3з258199 0.0 1025103
20:00+3юз31091100 0.0 1025547